SCP
0 0 -0 -0 0 0 0 -0 0 0 -0 -0 -0 -0 -0 -0 -0 -0 -0 -0 -0 -0 -0 -0 -0 -0 -0 -0 -0 -0 -0 -0 -0 -0 -0 -0 -0 -0 -0 -0 0 0 0
-0 0 -0 -0 -0 -0 0 0 0 0 0 0 0 0 -0 -0 -0 -0 -0 -0 -0 -0 -0 -0 -0 -0 -0 -0 -0 -0 -0 -0 -0 -0 -0 -0 -0 -0 -0 -0 0 0 0
0 -0 -0 -0 -0 0 0 -0 -0 0 0 -0 -0 -0 -0 -0 -0 -0 -0 -0 -0 -0 -0 -0 -0 -0 -0 -0 -0 -0 -0 -0 -0 -0 -0 0 0 -0 -0 -0 -0 -0 -0
0 0 0 0 -0 -0 -0 -0 -0 -0 0 -0 -0 -0 -0 -0 -0 -0 -0 -0 -0 -0 -0 0 -0 -0 -0 -0 -0 -0 -0 -0 -0 -0 0 0 0 -0 -0 -0 -0 -0 -0
0 0 0 -0 -0 -0 -0 -0 -0 -0 -0 -0 -0 -0 -0 -0 -0 -0 -0 -0 -0 -0 -0 -0 -0 -0 -0 -0 -0 -0 -0 -0 -0 0 0 0 0 -0 -0 -0 -0 -0 -0
0 0 0 0 -0 -0 -0 -0 -0 0 -0 -0 -0 -0 -0 -0 -0 -0 -0 0 -0 -0 -0 -0 -0 -0 -0 -0 -0 -0 -0 -0 0 0 0 0 0 -0 -0 -0 0 0 0
0 0 0 0 0 0 -0 -0 0 0 0 0 -0 -0 -0 -0 -0 -0 -0 0 -0 -0 -0 -0 -0 -0 -0 -0 -0 -0 -0 -0 0 0 0 0 0 0 0 0 0 0 0
0 0 0 -0 0 0 0 0 -0 0 0 0 0 -0 -0 -0 -0 -0 -0 -0 -0 -0 -0 -0 -0 -0 -0 -0 -0 -0 0 0 0 0 0 0 0 0 0 0 0 0 0
0 0 0 0 0 0 0 0 0 0 0 0 0 0 -0 0 0 0 -0 -0 -0 -0 -0 -0 -0 -0 -0 -0 -0 0 0 0 0 0 0 0 0 0 0 0 0 0 0
0 0 0 0 0 0 0 0 0 -0 0 0 0 0 0 0 -0 -0 -0 -0 -0 -0 -0 -0 -0 -0 0 0 0 0 0 0 0 0 0 0 0 0 0 0 0 0 0
0 0 0 0 0 0 0 0 0 -0 0 0 0 0 0 0 0 0 -0 -0 -0 -0 -0 -0 0 0 0 0 0 0 0 0 0 0 0 0 0 0 0 0 0 0 0
0 -0 0 0 0 0 0 0 -0 -0 0 0 0 0 0 0 0 -0 -0 -0 -0 0 0 0 0 0 0 0 0 0 0 0 0 0 0 0 0 0 0 0 0 0 0
-0 0 -0 0 0 0 0 0 -0 -0 -0 0 0 0 0 0 0 0 0 0 0 0 0 0 0 0 0 0 0 0 0 0 0 0 0 0 0 0 0 0 0 0 0
0 -0 -0 -0 0 0 0 0 0 0 0 0 0 0 0 0 0 0 0 0 0 0 0 0 0 0 0 0 0 0 0 0 0 0 0 0 0 0 0 0 0 0 0
0 0 0 0 0 0 0 0 0 0 0 0 0 0 0 0 0 0 0 0 0 0 0 0 0 0 0 0 0 0 0 0 0 0 0 0 0 0 0 0 0 0 0
0 0 0 0 0 0 0 0 0 0 0 0 0 0 0 0 0 0 0 0 0 0 0 0 0 0 0 0 0 0 0 0 0 0 0 0 0 0 0 0 0 0 0
0 0 0 0 0 0 0 0 0 0 0 0 0 0 0 0 0 0 0 0 0 0 0 0 0 0 0 0 0 0 0 0 0 0 0 0 0 0 0 0 0 0 0
0 0 0 0 0 0 0 0 0 0 0 0 0 0 0 0 0 0 0 0 0 0 0 0 0 0 0 0 0 0 0 0 0 0 0 0 0 0 0 0 0 0 0
0 0 0 0 0 0 0 0 0 0 0 0 0 0 0 0 0 0 0 0 0 0 0 0 0 0 0 0 0 0 0 0 0 0 0 0 0 0 0 0 0 0 0
0 0 0 0 0 0 0 0 0 0 0 0 0 0 0 0 0 0 0 0 0 0 0 0 0 0 0 0 0 0 0 0 0 0 0 0 0 0 0 0 0 0 0
0 0 0 0 0 0 0 0 0 0 0 0 0 0 0 0 0 0 0 0 0 0 0 0 0 0 0 0 0 0 0 0 0 0 0 0 0 0 0 0 0 0 0
0 0 0 0 0 0 0 0 0 0 0 0 0 0 0 0 0 0 0 0 0 0 0 0 0 0 0 0 0 0 0 0 0 0 0 0 0 0 0 0 0 0 0
0 0 0 0 0 0 0 0 0 0 0 0 0 0 0 0 0 0 0 0 0 0 0 0 0 0 0 0 0 0 0 0 0 0 0 0 0 0 0 0 0 0 0
0 0 0 0 0 0 0 0 0 0 0 0 0 0 0 0 0 0 0 0 0 0 0 0 0 0 0 0 0 0 0 0 0 0 0 0 0 0 0 0 0 0 0
0 0 0 0 0 0 0 0 0 0 0 0 0 0 0 0 0 0 0 0 0 0 0 0 0 0 0 0 0 0 0 0 0 0 0 0 0 0 0 0 0 0 0
0 0 0 0 0 0 0 0 0 0 0 0 0 0 0 0 0 0 0 0 0 0 0 0 0 0 0 0 0 0 0 0 0 0 0 0 0 0 0 0 0 0 0
Wind_Speed_500mb
21 20 17 15 18 20 24 25 27 28 27 26 22 18 15 13 11 14 16 20 23 32 35 34 30 31 34 32 31 32 33 33 40 40 39 36 40 40 42 43 44 48 44
20 19 22 16 19 23 25 26 25 22 19 18 17 16 13 13 15 17 19 23 31 35 34 32 35 34 36 39 38 36 33 36 36 33 34 34 39 41 40 40 44 42 43
22 20 24 20 23 24 24 24 23 18 16 15 17 15 12 14 16 19 21 24 33 32 31 31 32 35 35 37 37 38 38 37 35 35 36 38 40 39 39 41 41 40 40
20 18 23 24 23 24 24 24 23 20 15 8 12 11 11 13 18 22 24 26 31 30 27 30 31 34 34 33 36 37 36 35 34 34 35 36 38 39 37 38 38 38 38
21 20 23 28 24 23 23 24 22 19 12 7 10 12 13 18 22 23 24 26 29 28 25 30 32 31 31 33 35 35 34 32 31 31 32 34 35 35 35 34 34 34 35
21 24 23 26 28 27 24 22 20 17 12 8 11 13 17 23 24 24 25 27 28 24 25 29 28 29 30 32 32 31 30 29 27 27 29 30 33 31 30 29 30 31 31
19 24 25 28 30 29 28 26 22 16 18 17 11 13 18 23 24 23 24 25 24 21 24 25 26 28 30 28 28 27 27 26 24 25 25 29 29 26 26 26 27 27 28
17 23 26 30 35 33 30 29 23 19 19 16 14 14 15 19 20 21 21 22 20 18 19 21 24 25 24 23 23 24 24 22 21 21 21 26 24 23 23 23 23 22 23
21 22 25 25 34 37 35 32 28 22 23 15 13 15 18 15 17 18 17 17 17 16 15 17 19 19 18 18 19 19 19 19 18 19 20 22 22 21 20 23 21 21 21
27 24 23 25 26 29 31 30 28 22 21 17 15 14 15 16 16 17 16 15 16 15 13 12 13 13 12 13 15 14 14 14 14 16 17 18 17 17 17 18 18 20 18
34 31 27 26 26 27 26 26 24 26 29 24 21 18 16 12 11 15 15 13 12 12 12 9 6 6 7 8 9 10 9 9 9 9 11 13 14 15 16 14 14 16 15
39 36 32 28 28 26 26 23 20 20 20 19 18 17 15 11 10 11 13 12 10 9 8 7 5 1 2 3 3 3 3 3 5 6 7 9 13 15 15 12 9 13 12
38 36 33 27 23 20 20 21 22 22 22 21 20 19 17 14 11 12 13 11 10 10 9 8 6 5 5 5 4 3 3 4 5 7 9 10 13 16 17 15 12 11 7
43 39 36 32 29 29 27 24 22 21 19 18 18 18 16 13 13 14 15 14 12 11 10 8 8 8 9 9 9 9 9 10 10 11 13 14 14 16 16 15 11 6 9
43 42 42 39 35 32 30 26 25 23 19 18 16 17 16 16 15 16 18 16 14 12 11 11 11 11 12 12 13 14 15 16 16 16 16 17 17 18 17 12 4 12 11
46 44 44 43 40 38 34 31 26 24 22 23 21 18 17 17 17 15 16 16 16 15 15 16 16 16 15 15 16 17 19 20 21 20 20 19 21 21 18 11 14 10 12
51 46 47 47 44 43 39 36 33 29 28 26 24 23 22 20 19 19 18 18 17 18 19 19 19 19 19 19 19 20 21 24 23 22 22 23 24 23 21 19 17 11 18
55 54 49 50 50 48 45 41 38 37 35 32 29 29 27 26 24 24 23 20 20 21 21 21 22 23 22 23 23 23 23 25 26 25 26 27 26 25 24 23 23 22 23
60 58 57 55 53 51 47 45 44 43 43 39 37 35 33 31 31 29 27 23 26 26 26 25 26 27 26 25 24 23 26 27 29 32 31 28 27 28 27 26 26 26 26
62 63 62 61 58 56 53 49 50 51 48 46 45 43 40 37 36 35 33 30 32 33 31 31 29 28 28 26 25 30 31 33 38 37 32 32 32 32 32 31 31 31 31
68 70 70 69 66 64 64 61 61 61 57 55 54 48 47 45 43 41 40 38 40 40 36 34 34 32 27 28 33 37 42 41 37 34 35 36 37 35 37 36 35 37 40
71 73 75 75 73 71 70 67 67 62 63 60 57 54 52 51 51 50 48 46 46 46 45 43 42 42 37 31 39 40 35 33 30 29 33 36 40 37 37 43 44 43 41
72 77 78 78 78 76 75 70 73 69 70 68 70 67 62 58 54 55 54 53 52 52 52 49 48 49 47 41 43 42 18 14 21 29 35 39 41 47 48 47 53 54 49
81 74 76 77 81 81 77 80 78 74 74 70 67 64 64 63 62 60 59 58 58 56 59 55 53 55 53 54 48 55 45 50 52 41 45 44 46 48 54 51 58 64 58
75 81 74 74 76 79 79 79 80 78 73 70 68 63 62 61 65 65 63 62 62 61 59 60 59 60 60 60 61 56 58 56 61 67 61 56 57 55 52 64 61 64 66
77 78 76 79 74 75 74 76 80 77 72 73 69 65 62 58 56 61 62 63 62 64 64 63 62 64 64 64 66 67 67 67 65 65 71 77 72 67 65 60 56 58 72
Wind_Direction_500mb
161 157 142 135 135 140 134 126 120 119 120 118 116 111 99 91 94 92 83 79 86 90 90 86 91 86 91 88 90 85 82 76 86 88 93 84 75 77 72 70 65 72 72
164 161 151 153 140 138 138 132 126 126 126 127 125 116 95 93 100 91 90 92 95 97 89 84 88 91 84 78 77 77 80 80 88 88 85 82 77 78 74 73 76 73 70
165 162 163 163 148 145 144 140 136 132 123 116 118 116 96 91 98 101 99 98 101 100 92 85 83 86 80 81 83 84 82 82 82 78 81 84 79 76 75 71 71 72 71
167 163 164 167 165 155 151 145 139 134 124 108 123 117 93 97 102 102 101 103 104 104 92 85 87 87 83 87 85 80 81 82 82 83 81 78 77 76 71 70 68 66 66
167 167 163 166 169 161 154 150 146 139 135 144 124 106 105 111 112 105 107 105 106 100 91 85 88 87 86 85 82 81 81 81 83 84 82 78 76 73 70 67 65 63 60
170 166 167 167 167 165 165 159 154 143 136 125 115 107 111 115 107 106 103 102 111 106 98 96 90 88 84 82 82 83 83 83 82 80 78 78 74 72 69 65 62 59 56
179 174 172 171 168 166 164 159 160 160 150 144 135 114 118 116 107 104 107 110 115 114 103 100 93 84 80 83 87 86 85 83 79 77 76 75 72 67 63 60 61 59 54
189 179 173 169 172 171 166 162 164 178 163 151 144 119 112 116 111 113 112 112 114 115 106 99 92 87 87 87 90 90 86 80 76 72 68 73 68 62 54 54 50 47 43
179 183 171 170 177 183 190 195 200 171 164 165 152 138 132 129 129 118 116 119 120 119 113 101 93 90 91 92 93 93 89 82 71 63 57 64 62 48 46 42 36 30 26
177 181 176 169 171 185 195 207 218 178 167 179 171 164 151 126 135 141 135 129 128 124 115 101 97 98 96 93 90 91 87 81 69 58 49 46 47 37 33 26 23 22 28
184 181 184 178 174 178 187 196 187 173 178 186 184 182 185 170 155 163 151 143 135 131 131 127 112 102 90 82 83 87 82 73 68 54 41 33 30 24 18 23 17 4 358
190 185 185 191 188 190 185 182 179 177 188 191 194 190 188 191 186 174 172 163 155 149 153 160 169 178 93 78 69 75 85 66 22 10 14 11 5 359 359 358 356 352 352
192 193 191 193 196 194 193 189 185 186 189 194 197 200 201 201 199 194 193 186 176 177 186 198 205 240 280 293 281 273 289 294 296 310 325 340 346 347 349 350 356 6 25
202 199 197 194 201 196 199 197 198 200 202 205 205 207 209 207 206 204 201 203 204 205 212 226 248 256 263 275 280 280 284 285 289 295 305 317 329 336 341 339 6 29 344
211 207 206 204 203 206 206 204 206 206 207 208 212 208 211 211 212 212 210 212 222 228 235 246 252 259 261 267 276 280 280 280 284 289 296 305 316 323 328 339 343 323 341
213 215 212 212 210 211 212 215 213 217 212 213 215 216 217 219 222 223 224 226 232 240 246 252 255 260 266 271 274 278 278 277 279 283 289 296 304 310 312 287 304 327 304
220 217 219 217 217 219 217 219 219 222 225 223 222 223 223 225 231 228 231 234 238 245 251 260 264 269 272 274 276 276 276 279 280 283 289 294 297 300 301 291 295 284 297
226 225 222 223 221 221 223 223 225 225 228 231 231 230 229 228 231 234 235 238 243 250 256 264 269 272 275 278 279 277 278 277 277 280 284 289 289 289 293 285 289 297 301
230 230 228 229 227 228 226 228 229 229 232 233 235 237 235 236 235 239 242 243 247 254 261 265 269 274 275 278 282 282 281 278 274 279 279 280 279 283 288 285 288 289 293
234 234 234 235 234 231 231 231 234 234 236 236 239 241 242 242 243 245 248 249 254 258 261 266 271 277 278 278 281 279 279 278 273 276 272 275 276 279 284 286 281 281 283
238 237 236 235 235 235 234 230 233 236 238 240 239 241 243 244 246 248 251 251 253 260 266 267 268 269 271 277 283 282 283 284 275 271 272 275 275 277 281 284 278 276 278
240 241 239 237 237 237 237 238 241 242 246 247 250 250 250 248 249 251 253 255 256 259 263 264 266 268 269 279 277 287 296 289 273 277 277 278 274 273 270 272 275 274 275
240 240 240 239 238 239 239 241 243 245 247 249 248 248 249 251 251 253 256 257 259 261 264 266 267 267 271 272 275 265 271 260 295 290 292 286 279 266 263 268 272 275 274
247 246 243 242 240 240 240 241 243 246 249 253 255 256 256 255 256 256 257 258 260 262 264 266 267 267 266 268 266 268 262 266 272 285 280 277 275 272 263 267 272 271 268
246 244 244 242 242 242 240 242 246 247 252 256 259 261 259 258 256 257 259 261 262 265 268 268 268 266 264 266 265 269 264 266 266 268 274 274 273 276 275 267 276 280 257
246 239 241 242 243 242 242 241 244 246 249 254 256 258 262 263 262 259 259 260 263 264 267 269 269 268 267 266 266 264 262 259 264 265 268 272 277 279 275 269 271 276 261
Wind_Speed_850mb
21 20 17 15 18 20 24 25 27 28 27 26 22 18 15 13 11 14 16 20 23 32 35 34 30 31 34 32 31 32 33 33 40 40 39 36 40 40 42 43 44 48 44
20 19 22 16 19 23 25 26 25 22 19 18 17 16 13 13 15 17 19 23 31 35 34 32 35 34 36 39 38 36 33 36 36 33 34 34 39 41 40 40 44 42 43
22 20 24 20 23 24 24 24 23 18 16 15 17 15 12 14 16 19 21 24 33 32 31 31 32 35 35 37 37 38 38 37 35 35 36 38 40 39 39 41 41 40 40
20 18 23 24 23 24 24 24 23 20 15 8 12 11 11 13 18 22 24 26 31 30 27 30 31 34 34 33 36 37 36 35 34 34 35 36 38 39 37 38 38 38 38
21 20 23 28 24 23 23 24 22 19 12 7 10 12 13 18 22 23 24 26 29 28 25 30 32 31 31 33 35 35 34 32 31 31 32 34 35 35 35 34 34 34 35
21 24 23 26 28 27 24 22 20 17 12 8 11 13 17 23 24 24 25 27 28 24 25 29 28 29 30 32 32 31 30 29 27 27 29 30 33 31 30 29 30 31 31
19 24 25 28 30 29 28 26 22 16 18 17 11 13 18 23 24 23 24 25 24 21 24 25 26 28 30 28 28 27 27 26 24 25 25 29 29 26 26 26 27 27 28
17 23 26 30 35 33 30 29 23 19 19 16 14 14 15 19 20 21 21 22 20 18 19 21 24 25 24 23 23 24 24 22 21 21 21 26 24 23 23 23 23 22 23
21 22 25 25 34 37 35 32 28 22 23 15 13 15 18 15 17 18 17 17 17 16 15 17 19 19 18 18 19 19 19 19 18 19 20 22 22 21 20 23 21 21 21
27 24 23 25 26 29 31 30 28 22 21 17 15 14 15 16 16 17 16 15 16 15 13 12 13 13 12 13 15 14 14 14 14 16 17 18 17 17 17 18 18 20 18
34 31 27 26 26 27 26 26 24 26 29 24 21 18 16 12 11 15 15 13 12 12 12 9 6 6 7 8 9 10 9 9 9 9 11 13 14 15 16 14 14 16 15
39 36 32 28 28 26 26 23 20 20 20 19 18 17 15 11 10 11 13 12 10 9 8 7 5 1 2 3 3 3 3 3 5 6 7 9 13 15 15 12 9 13 12
38 36 33 27 23 20 20 21 22 22 22 21 20 19 17 14 11 12 13 11 10 10 9 8 6 5 5 5 4 3 3 4 5 7 9 10 13 16 17 15 12 11 7
43 39 36 32 29 29 27 24 22 21 19 18 18 18 16 13 13 14 15 14 12 11 10 8 8 8 9 9 9 9 9 10 10 11 13 14 14 16 16 15 11 6 9
43 42 42 39 35 32 30 26 25 23 19 18 16 17 16 16 15 16 18 16 14 12 11 11 11 11 12 12 13 14 15 16 16 16 16 17 17 18 17 12 4 12 11
46 44 44 43 40 38 34 31 26 24 22 23 21 18 17 17 17 15 16 16 16 15 15 16 16 16 15 15 16 17 19 20 21 20 20 19 21 21 18 11 14 10 12
51 46 47 47 44 43 39 36 33 29 28 26 24 23 22 20 19 19 18 18 17 18 19 19 19 19 19 19 19 20 21 24 23 22 22 23 24 23 21 19 17 11 18
55 54 49 50 50 48 45 41 38 37 35 32 29 29 27 26 24 24 23 20 20 21 21 21 22 23 22 23 23 23 23 25 26 25 26 27 26 25 24 23 23 22 23
60 58 57 55 53 51 47 45 44 43 43 39 37 35 33 31 31 29 27 23 26 26 26 25 26 27 26 25 24 23 26 27 29 32 31 28 27 28 27 26 26 26 26
62 63 62 61 58 56 53 49 50 51 48 46 45 43 40 37 36 35 33 30 32 33 31 31 29 28 28 26 25 30 31 33 38 37 32 32 32 32 32 31 31 31 31
68 70 70 69 66 64 64 61 61 61 57 55 54 48 47 45 43 41 40 38 40 40 36 34 34 32 27 28 33 37 42 41 37 34 35 36 37 35 37 36 35 37 40
71 73 75 75 73 71 70 67 67 62 63 60 57 54 52 51 51 50 48 46 46 46 45 43 42 42 37 31 39 40 35 33 30 29 33 36 40 37 37 43 44 43 41
72 77 78 78 78 76 75 70 73 69 70 68 70 67 62 58 54 55 54 53 52 52 52 49 48 49 47 41 43 42 18 14 21 29 35 39 41 47 48 47 53 54 49
81 74 76 77 81 81 77 80 78 74 74 70 67 64 64 63 62 60 59 58 58 56 59 55 53 55 53 54 48 55 45 50 52 41 45 44 46 48 54 51 58 64 58
75 81 74 74 76 79 79 79 80 78 73 70 68 63 62 61 65 65 63 62 62 61 59 60 59 60 60 60 61 56 58 56 61 67 61 56 57 55 52 64 61 64 66
77 78 76 79 74 75 74 76 80 77 72 73 69 65 62 58 56 61 62 63 62 64 64 63 62 64 64 64 66 67 67 67 65 65 71 77 72 67 65 60 56 58 72
Wind_Direction_850mb
161 157 142 135 135 140 134 126 120 119 120 118 116 111 99 91 94 92 83 79 86 90 90 86 91 86 91 88 90 85 82 76 86 88 93 84 75 77 72 70 65 72 72
164 161 151 153 140 138 138 132 126 126 126 127 125 116 95 93 100 91 90 92 95 97 89 84 88 91 84 78 77 77 80 80 88 88 85 82 77 78 74 73 76 73 70
165 162 163 163 148 145 144 140 136 132 123 116 118 116 96 91 98 101 99 98 101 100 92 85 83 86 80 81 83 84 82 82 82 78 81 84 79 76 75 71 71 72 71
167 163 164 167 165 155 151 145 139 134 124 108 123 117 93 97 102 102 101 103 104 104 92 85 87 87 83 87 85 80 81 82 82 83 81 78 77 76 71 70 68 66 66
167 167 163 166 169 161 154 150 146 139 135 144 124 106 105 111 112 105 107 105 106 100 91 85 88 87 86 85 82 81 81 81 83 84 82 78 76 73 70 67 65 63 60
170 166 167 167 167 165 165 159 154 143 136 125 115 107 111 115 107 106 103 102 111 106 98 96 90 88 84 82 82 83 83 83 82 80 78 78 74 72 69 65 62 59 56
179 174 172 171 168 166 164 159 160 160 150 144 135 114 118 116 107 104 107 110 115 114 103 100 93 84 80 83 87 86 85 83 79 77 76 75 72 67 63 60 61 59 54
189 179 173 169 172 171 166 162 164 178 163 151 144 119 112 116 111 113 112 112 114 115 106 99 92 87 87 87 90 90 86 80 76 72 68 73 68 62 54 54 50 47 43
179 183 171 170 177 183 190 195 200 171 164 165 152 138 132 129 129 118 116 119 120 119 113 101 93 90 91 92 93 93 89 82 71 63 57 64 62 48 46 42 36 30 26
177 181 176 169 171 185 195 207 218 178 167 179 171 164 151 126 135 141 135 129 128 124 115 101 97 98 96 93 90 91 87 81 69 58 49 46 47 37 33 26 23 22 28
184 181 184 178 174 178 187 196 187 173 178 186 184 182 185 170 155 163 151 143 135 131 131 127 112 102 90 82 83 87 82 73 68 54 41 33 30 24 18 23 17 4 358
190 185 185 191 188 190 185 182 179 177 188 191 194 190 188 191 186 174 172 163 155 149 153 160 169 178 93 78 69 75 85 66 22 10 14 11 5 359 359 358 356 352 352
192 193 191 193 196 194 193 189 185 186 189 194 197 200 201 201 199 194 193 186 176 177 186 198 205 240 280 293 281 273 289 294 296 310 325 340 346 347 349 350 356 6 25
202 199 197 194 201 196 199 197 198 200 202 205 205 207 209 207 206 204 201 203 204 205 212 226 248 256 263 275 280 280 284 285 289 295 305 317 329 336 341 339 6 29 344
211 207 206 204 203 206 206 204 206 206 207 208 212 208 211 211 212 212 210 212 222 228 235 246 252 259 261 267 276 280 280 280 284 289 296 305 316 323 328 339 343 323 341
213 215 212 212 210 211 212 215 213 217 212 213 215 216 217 219 222 223 224 226 232 240 246 252 255 260 266 271 274 278 278 277 279 283 289 296 304 310 312 287 304 327 304
220 217 219 217 217 219 217 219 219 222 225 223 222 223 223 225 231 228 231 234 238 245 251 260 264 269 272 274 276 276 276 279 280 283 289 294 297 300 301 291 295 284 297
226 225 222 223 221 221 223 223 225 225 228 231 231 230 229 228 231 234 235 238 243 250 256 264 269 272 275 278 279 277 278 277 277 280 284 289 289 289 293 285 289 297 301
230 230 228 229 227 228 226 228 229 229 232 233 235 237 235 236 235 239 242 243 247 254 261 265 269 274 275 278 282 282 281 278 274 279 279 280 279 283 288 285 288 289 293
234 234 234 235 234 231 231 231 234 234 236 236 239 241 242 242 243 245 248 249 254 258 261 266 271 277 278 278 281 279 279 278 273 276 272 275 276 279 284 286 281 281 283
238 237 236 235 235 235 234 230 233 236 238 240 239 241 243 244 246 248 251 251 253 260 266 267 268 269 271 277 283 282 283 284 275 271 272 275 275 277 281 284 278 276 278
240 241 239 237 237 237 237 238 241 242 246 247 250 250 250 248 249 251 253 255 256 259 263 264 266 268 269 279 277 287 296 289 273 277 277 278 274 273 270 272 275 274 275
240 240 240 239 238 239 239 241 243 245 247 249 248 248 249 251 251 253 256 257 259 261 264 266 267 267 271 272 275 265 271 260 295 290 292 286 279 266 263 268 272 275 274
247 246 243 242 240 240 240 241 243 246 249 253 255 256 256 255 256 256 257 258 260 262 264 266 267 267 266 268 266 268 262 266 272 285 280 277 275 272 263 267 272 271 268
246 244 244 242 242 242 240 242 246 247 252 256 259 261 259 258 256 257 259 261 262 265 268 268 268 266 264 266 265 269 264 266 266 268 274 274 273 276 275 267 276 280 257
246 239 241 242 243 242 242 241 244 246 249 254 256 258 262 263 262 259 259 260 263 264 267 269 269 268 267 266 266 264 262 259 264 265 268 272 277 279 275 269 271 276 261